Project,Study,Ord_Occ,Event_Num,Cast_ID,Date_Time_UTC,Date_Time_PST,Lat_Dec,Lon_Dec,Sta_ID,Line,Sta,Depth,Pressure,PrQ,Temp1,Temp1Q,Temp2,Temp2Q,TempAve,Salt1,Salt1Q,Salt1_Corr,Salt2,Salt2Q,Salt2_Corr,SaltAve_Corr,Ox1,Ox1Q,Ox1_CruiseCorr,Ox1_StaCorr,Ox2,Ox2Q,Ox2_CruiseCorr,Ox2_StaCorr,OxAve_StaCorr,Ox1uM,Ox1uM_CruiseCorr,Ox1uM_StaCorr,Ox2uM,Ox2uM_CruiseCorr,Ox2uM_StaCorr,OxAveuM_StaCorr,FluorV,FluorQ,EstChl_CruiseCorr,EstChl_StaCorr,ISUSV,ISUSQ,EstNO3_CruiseCorr,EstNO3_StaCorr,SigThetaTS1,SigThetaTS1Q,SigThetaTS2,SigThetaTS2Q,BAT,XMiss,TransQ,pH,pHQ,SPAR,SPARQ,PAR,PARQ,PoT1,PoT2,DynHt,SVA,OxSat1,OxSat2,BTL_Depth,BTL_Temp,SaltB,OxB,OxBuM,Chl-a,Phaeo,NO3,NO2,NH4,PO4,SIL
CalCOFI,2007SR,035,37,2007_035d,19-Jul-2020 16:18:35,19-Jul-2020 08:18:35,33.82316,-118.62726,086.7 035.0,086.7,035.0,1.000,1.007,,16.4082,,16.4054,,16.4068,33.5845,,33.5847,33.5849,,33.5865,33.5856,5.8782,,6.1244,5.9061,4.3642,,6.4775,4.8257,5.3659,256.228,266.9883,188.4350,190.232,461.1523,160.4569,174.4460,0.1285,,1.0873,0.9221,-99.0,,-99.0,-99.0,24.5658,,24.5668,,1.0297,77.3044,,8.178,,7.2951E+02,,2.6893E+01,,16.4080,16.4053,0.0002,,105.247,78.135,,,,,,,,,,,,
CalCOFI,2007SR,035,37,2007_035d,19-Jul-2020 16:18:40,19-Jul-2020 08:18:40,33.82316,-118.62726,086.7 035.0,086.7,035.0,2.000,2.014,,16.4006,,16.4013,,16.4010,33.5846,,33.5848,33.5854,,33.5870,33.5859,5.8849,,6.1314,5.9127,4.3699,,6.4911,4.8372,5.3750,256.516,267.2890,188.6180,190.481,461.8567,160.8027,174.7104,0.1205,,0.9929,0.8822,-99.0,,-99.0,-99.0,24.5677,,24.5681,,1.0246,77.4019,,8.178,,7.3210E+02,,2.1495E+01,,16.4002,16.4010,0.0042,,105.350,78.232,2,16.407,,6.109,266.63,1.385,0.257,0.0,0.00,0.18,0.21,3.59
CalCOFI,2007SR,035,37,2007_035d,19-Jul-2020 16:18:44,19-Jul-2020 08:18:44,33.82316,-118.62726,086.7 035.0,086.7,035.0,3.000,3.022,,16.4124,,16.4115,,16.4120,33.5855,,33.5857,33.5855,,33.5871,33.5864,5.8795,,6.1258,5.9074,4.3709,,6.4934,4.8392,5.3733,256.285,267.0478,188.4713,190.523,461.2917,160.8611,174.6662,0.1334,,1.1451,0.9431,-99.0,,-99.0,-99.0,24.5657,,24.5659,,1.0230,77.4339,,8.178,,7.3109E+02,,1.7545E+01,,16.4119,16.4111,0.0076,,105.280,78.264,,,,,,,,,,,,
CalCOFI,2007SR,035,37,2007_035d,19-Jul-2020 16:18:46,19-Jul-2020 08:18:46,33.82316,-118.62726,086.7 035.0,086.7,035.0,4.000,4.029,,16.4037,,16.4042,,16.4040,33.5845,,33.5847,33.5849,,33.5865,33.5856,5.8882,,6.1349,5.9160,4.3756,,6.5047,4.8486,5.3823,256.661,267.4403,188.7102,190.728,462.2114,161.1458,174.9280,0.1342,,1.1545,0.9463,-99.0,,-99.0,-99.0,24.5670,,24.5672,,1.0328,77.2435,,8.178,,7.3124E+02,,1.4708E+01,,16.4030,16.4036,0.0110,,105.416,78.337,,,,,,,,,,,,
CalCOFI,2007SR,035,37,2007_035d,19-Jul-2020 16:18:48,19-Jul-2020 08:18:48,33.82316,-118.62726,086.7 035.0,086.7,035.0,5.000,5.036,,16.3862,,16.3870,,16.3866,33.5843,,33.5845,33.5848,,33.5864,33.5855,5.8825,,6.1289,5.9104,4.3793,,6.5135,4.8561,5.3833,256.414,267.1825,188.5532,190.890,461.6072,161.3707,174.9620,0.1263,,1.0613,0.9118,-99.0,,-99.0,-99.0,24.5709,,24.5711,,1.0332,77.2366,,8.179,,7.3297E+02,,1.2361E+01,,16.3854,16.3862,0.0144,,105.279,78.378,,,,,,,,,,,,
CalCOFI,2007SR,035,37,2007_035d,19-Jul-2020 16:18:50,19-Jul-2020 08:18:50,33.82316,-118.62726,086.7 035.0,086.7,035.0,6.000,6.043,,16.3863,,16.3868,,16.3866,33.5843,,33.5845,33.5847,,33.5863,33.5854,5.8828,,6.1292,5.9107,4.3801,,6.5154,4.8577,5.3842,256.426,267.1950,188.5608,190.926,461.6366,161.4207,174.9908,0.1324,,1.1333,0.9390,-99.0,,-99.0,-99.0,24.5709,,24.5711,,1.0348,77.2051,,8.179,,7.3392E+02,,1.0665E+01,,16.3853,16.3858,0.0178,,105.284,78.392,,,,,,,,,,,,
CalCOFI,2007SR,035,37,2007_035d,19-Jul-2020 16:18:52,19-Jul-2020 08:18:52,33.82316,-118.62726,086.7 035.0,086.7,035.0,7.000,7.050,,16.3778,,16.3783,,16.3781,33.5840,,33.5842,33.5843,,33.5859,33.5851,5.8779,,6.1241,5.9058,4.3843,,6.5254,4.8662,5.3860,256.213,266.9727,188.4255,191.106,461.1156,161.6707,175.0481,0.1367,,1.1840,0.9557,-99.0,,-99.0,-99.0,24.5726,,24.5728,,1.0344,77.2139,,8.179,,7.3478E+02,,9.1092E+00,,16.3767,16.3772,0.0211,,105.180,78.453,,,,,,,,,,,,
CalCOFI,2007SR,035,37,2007_035d,19-Jul-2020 16:18:54,19-Jul-2020 08:18:54,33.82316,-118.62726,086.7 035.0,086.7,035.0,8.000,8.058,,16.3690,,16.3700,,16.3695,33.5838,,33.5840,33.5843,,33.5859,33.5850,5.8842,,6.1307,5.9121,4.3861,,6.5297,4.8698,5.3910,256.487,267.2587,188.5996,191.183,461.7858,161.7776,175.1886,0.1429,,1.2572,0.9762,-99.0,,-99.0,-99.0,24.5745,,24.5747,,1.0381,77.1432,,8.179,,7.3314E+02,,7.9786E+00,,16.3677,16.3688,0.0245,,105.274,78.472,,,,,,,,,,,,
CalCOFI,2007SR,035,37,2007_035d,19-Jul-2020 16:18:56,19-Jul-2020 08:18:56,33.82316,-118.62726,086.7 035.0,086.7,035.0,9.000,9.065,,16.3613,,16.3614,,16.3614,33.5836,,33.5838,33.5839,,33.5855,33.5847,5.8852,,6.1317,5.9130,4.3908,,6.5410,4.8793,5.3962,256.529,267.3025,188.6263,191.389,461.8885,162.0637,175.3450,0.1462,,1.2961,0.9854,-99.0,,-99.0,-99.0,24.5762,,24.5764,,1.0400,77.1055,,8.179,,7.3381E+02,,6.9995E+00,,16.3598,16.3599,0.0279,,105.276,78.543,,,,,,,,,,,,
CalCOFI,2007SR,035,37,2007_035d,19-Jul-2020 16:18:58,19-Jul-2020 08:18:58,33.82316,-118.62726,086.7 035.0,086.7,035.0,10.000,10.072,,16.3524,,16.3530,,16.3527,33.5829,,33.5831,33.5835,,33.5851,33.5841,5.8735,,6.1195,5.9015,4.3917,,6.5431,4.8811,5.3913,256.017,266.7680,188.3009,191.429,460.6362,162.1193,175.2101,0.1507,,1.3493,0.9959,-99.0,,-99.0,-99.0,24.5778,,24.5781,,1.0419,77.0685,,8.179,,7.3402E+02,,6.3037E+00,,16.3508,16.3514,0.0313,,105.047,78.547,10,15.630,33.5730,, ,,,,,,,
CalCOFI,2007SR,035,37,2007_035d,19-Jul-2020 16:19:00,19-Jul-2020 08:19:00,33.82316,-118.62726,086.7 035.0,086.7,035.0,11.000,11.079,,16.3343,,16.3365,,16.3354,33.5810,,33.5812,33.5813,,33.5829,33.5821,5.8168,,6.0603,5.8454,4.4022,,6.5682,4.9023,5.3739,253.544,264.1865,186.7296,191.887,454.5876,162.7553,174.7425,0.1741,,1.6258,1.0147,-99.0,,-99.0,-99.0,24.5805,,24.5802,,1.0540,76.8358,,8.179,,7.3314E+02,,5.7157E+00,,16.3325,16.3348,0.0346,,103.995,78.709,,,,,,,,,,,,
CalCOFI,2007SR,035,37,2007_035d,19-Jul-2020 16:19:02,19-Jul-2020 08:19:02,33.82316,-118.62726,086.7 035.0,086.7,035.0,12.000,12.086,,16.1902,,16.1997,,16.1950,33.5715,,33.5717,33.5710,,33.5726,33.5722,5.5957,,5.8292,5.6266,4.4509,,6.6844,5.0005,5.3136,243.904,254.1233,180.6041,194.002,431.0096,165.6925,173.1483,0.2141,,2.0992,0.9067,-99.0,,-99.0,-99.0,24.6062,,24.6036,,1.0766,76.4030,,8.176,,7.3488E+02,,5.1540E+00,,16.1883,16.1978,0.0380,,99.758,79.361,,,,,,,,,,,,
CalCOFI,2007SR,035,37,2007_035d,19-Jul-2020 16:19:04,19-Jul-2020 08:19:04,33.82316,-118.62726,086.7 035.0,086.7,035.0,13.000,13.094,,15.6173,,15.6421,,15.6297,33.5389,,33.5391,33.5237,,33.5253,33.5322,5.3907,,5.6150,5.4238,4.5096,,6.8246,5.1189,5.2714,234.943,244.7689,174.9101,196.546,409.0922,169.2255,172.0678,0.2249,,2.2271,0.8472,-99.0,,-99.0,-99.0,24.7095,,24.6923,,1.0463,76.9860,,8.170,,7.3680E+02,,4.6847E+00,,15.6153,15.6401,0.0413,,95.013,79.505,,,,,,,,,,,,
CalCOFI,2007SR,035,37,2007_035d,19-Jul-2020 16:19:06,19-Jul-2020 08:19:06,33.82316,-118.62726,086.7 035.0,086.7,035.0,14.000,14.101,,14.6959,,14.6933,,14.6946,33.5345,,33.5347,33.5313,,33.5329,33.5338,5.1972,,5.4129,5.2324,4.5957,,7.0301,5.2926,5.2625,226.466,235.9198,169.5236,200.254,388.3587,174.3749,171.9493,0.2377,,2.3789,0.7600,-99.0,,-99.0,-99.0,24.9081,,24.9062,,1.0297,77.3037,,8.149,,7.3426E+02,,4.2858E+00,,14.6938,14.6913,0.0445,,89.935,79.516,,,,,,,,,,,,
CalCOFI,2007SR,035,37,2007_035d,19-Jul-2020 16:19:08,19-Jul-2020 08:19:08,33.82316,-118.62726,086.7 035.0,086.7,035.0,15.000,15.108,,14.1105,,14.1084,,14.1095,33.5289,,33.5291,33.5250,,33.5266,33.5279,5.1782,,5.3930,5.2136,4.6360,,7.1263,5.3739,5.2938,225.612,235.0283,168.9810,201.991,386.2699,176.7872,172.8841,0.2299,,2.2864,0.8153,-99.0,,-99.0,-99.0,25.0278,,25.0252,,0.9796,78.2821,,8.121,,7.3313E+02,,3.9667E+00,,14.1084,14.1062,0.0475,,88.549,79.273,,,,,,,,,,,,
CalCOFI,2007SR,035,37,2007_035d,19-Jul-2020 16:19:10,19-Jul-2020 08:19:10,33.82316,-118.62726,086.7 035.0,086.7,035.0,16.000,16.115,,13.7556,,13.7641,,13.7599,33.5090,,33.5092,33.5052,,33.5068,33.5080,5.2230,,5.4398,5.2579,4.6496,,7.1588,5.4013,5.3296,227.551,237.0524,170.2131,202.572,391.0124,177.5940,173.9036,0.2877,,2.9728,0.2457,-99.0,,-99.0,-99.0,25.0859,,25.0812,,0.9279,79.2959,,8.106,,7.3465E+02,,3.6787E+00,,13.7533,13.7618,0.0504,,88.663,78.942,,,,,,,,,,,,
CalCOFI,2007SR,035,37,2007_035d,19-Jul-2020 16:19:12,19-Jul-2020 08:19:12,33.82316,-118.62726,086.7 035.0,086.7,035.0,17.000,17.123,,13.5253,,13.5035,,13.5144,33.4948,,33.4950,33.4938,,33.4954,33.4952,5.2437,,5.4614,5.2784,4.6512,,7.1626,5.4045,5.3415,228.443,237.9835,170.7799,202.631,393.1942,177.6760,174.2280,0.4040,,4.3599,0.0000,-99.0,,-99.0,-99.0,25.1220,,25.1256,,0.9528,78.8042,,8.098,,7.3504E+02,,3.4363E+00,,13.5229,13.5011,0.0533,,88.588,78.544,,,,,,,,,,,,
CalCOFI,2007SR,035,37,2007_035d,19-Jul-2020 16:19:14,19-Jul-2020 08:19:14,33.82316,-118.62726,086.7 035.0,086.7,035.0,18.000,18.130,,13.4317,,13.4290,,13.4304,33.4962,,33.4964,33.4983,,33.4999,33.4982,5.2272,,5.4442,5.2621,4.6321,,7.1170,5.3660,5.3141,227.721,237.2299,170.3211,201.794,391.4282,176.5136,173.4174,0.4002,,4.3145,0.0000,-99.0,,-99.0,-99.0,25.1421,,25.1443,,0.9317,79.2213,,8.090,,7.3410E+02,,3.2343E+00,,13.4293,13.4265,0.0561,,88.143,78.104,,,,,,,,,,,,
CalCOFI,2007SR,035,37,2007_035d,19-Jul-2020 16:19:16,19-Jul-2020 08:19:16,33.82316,-118.62726,086.7 035.0,086.7,035.0,19.000,19.137,,13.3946,,13.3721,,13.3834,33.4938,,33.4940,33.4946,,33.4962,33.4951,5.1131,,5.3250,5.1492,4.6187,,7.0850,5.3390,5.2441,222.750,232.0406,167.1624,201.208,379.2699,175.6998,171.4311,0.3286,,3.4597,0.0000,-99.0,,-99.0,-99.0,25.1477,,25.1529,,0.8877,80.0983,,8.086,,7.3314E+02,,3.0626E+00,,13.3920,13.3694,0.0590,,86.152,77.785,,,,,,,,,,,,
CalCOFI,2007SR,035,37,2007_035d,19-Jul-2020 16:19:18,19-Jul-2020 08:19:18,33.82316,-118.62726,086.7 035.0,086.7,035.0,20.000,20.144,,13.2547,,13.2373,,13.2460,33.4944,,33.4946,33.4958,,33.4974,33.4960,5.0404,,5.2490,5.0773,4.6093,,7.0626,5.3200,5.1987,219.578,228.7294,165.1469,200.794,371.5116,175.1248,170.1359,0.2535,,2.5664,0.6273,-99.0,,-99.0,-99.0,25.1764,,25.1810,,0.8246,81.3735,,8.079,,7.3315E+02,,2.9074E+00,,13.2520,13.2345,0.0618,,84.685,77.413,20,12.833,33.5357,4.865,212.36,0.585,0.369,6.40,0.128,0.32,0.75,5.75
CalCOFI,2007SR,035,37,2007_035d,19-Jul-2020 16:19:20,19-Jul-2020 08:19:20,33.82316,-118.62726,086.7 035.0,086.7,035.0,21.000,21.152,,13.1695,,13.1576,,13.1636,33.5021,,33.5023,33.5040,,33.5056,33.5040,4.9584,,5.1633,4.9962,4.5996,,7.0394,5.3005,5.1484,215.999,224.9933,162.8727,200.367,362.7579,174.5318,168.7023,0.1556,,1.4071,1.0049,-99.0,,-99.0,-99.0,25.1994,,25.2033,,0.7478,82.9486,,8.072,,7.3315E+02,,2.7823E+00,,13.1667,13.1547,0.0646,,83.164,77.127,,,,,,,,,,,,
CalCOFI,2007SR,035,37,2007_035d,19-Jul-2020 16:19:22,19-Jul-2020 08:19:22,33.82316,-118.62726,086.7 035.0,086.7,035.0,22.000,22.159,,13.1226,,13.1086,,13.1156,33.5052,,33.5054,33.5070,,33.5086,33.5070,4.8604,,5.0609,4.8992,4.5867,,7.0086,5.2744,5.0868,211.727,220.5337,160.1582,199.806,352.3092,173.7528,166.9555,0.1304,,1.1097,0.9306,-99.0,,-99.0,-99.0,25.2113,,25.2154,,0.7290,83.3398,,8.065,,7.3479E+02,,2.6654E+00,,13.1196,13.1056,0.0673,,81.443,76.837,,,,,,,,,,,,
CalCOFI,2007SR,035,37,2007_035d,19-Jul-2020 16:19:24,19-Jul-2020 08:19:24,33.82316,-118.62726,086.7 035.0,086.7,035.0,23.000,23.166,,13.0083,,12.9958,,13.0021,33.5127,,33.5129,33.5152,,33.5168,33.5149,4.7549,,4.9507,4.7948,4.5797,,6.9919,5.2603,5.0276,207.128,215.7328,157.2359,199.492,341.0607,173.3167,165.2763,0.1261,,1.0590,0.9109,-99.0,,-99.0,-99.0,25.2397,,25.2442,,0.7100,83.7361,,8.055,,7.3420E+02,,2.5603E+00,,13.0052,12.9927,0.0701,,79.493,76.544,,,,,,,,,,,,
CalCOFI,2007SR,035,37,2007_035d,19-Jul-2020 16:19:27,19-Jul-2020 08:19:27,33.82316,-118.62726,086.7 035.0,086.7,035.0,24.000,24.174,,12.9059,,12.8832,,12.8946,33.5194,,33.5196,33.5222,,33.5238,33.5217,4.6067,,4.7958,4.6482,4.5619,,6.9494,5.2244,4.9363,200.667,208.9882,153.1304,198.713,325.2580,172.2349,162.6827,0.1184,,0.9682,0.8705,-99.0,,-99.0,-99.0,25.2652,,25.2719,,0.7022,83.8987,,8.043,,7.3314E+02,,2.4411E+00,,12.9027,12.8799,0.0728,,76.856,76.073,,,,,,,,,,,,
CalCOFI,2007SR,035,37,2007_035d,19-Jul-2020 16:19:29,19-Jul-2020 08:19:29,33.82316,-118.62726,086.7 035.0,086.7,035.0,25.000,25.181,,12.7925,,12.7781,,12.7853,33.5327,,33.5329,33.5354,,33.5370,33.5350,4.4840,,4.6676,4.5268,4.5475,,6.9150,5.1954,4.8611,195.313,203.3991,149.7284,198.078,312.1629,171.3530,160.5407,0.1192,,0.9776,0.8750,-99.0,,-99.0,-99.0,25.2978,,25.3028,,0.6972,84.0049,,8.032,,7.3315E+02,,2.3429E+00,,12.7892,12.7747,0.0755,,74.638,75.674,,,,,,,,,,,,
CalCOFI,2007SR,035,37,2007_035d,19-Jul-2020 16:19:30,19-Jul-2020 08:19:30,33.82316,-118.62726,086.7 035.0,086.7,035.0,26.000,26.188,,12.7247,,12.7055,,12.7151,33.5396,,33.5398,33.5421,,33.5437,33.5418,4.3200,,4.4963,4.3646,4.5338,,6.8823,5.1677,4.7662,188.169,195.9415,145.1889,197.477,294.6897,170.5184,157.8537,0.1183,,0.9670,0.8700,-99.0,,-99.0,-99.0,25.3165,,25.3221,,0.7025,83.8926,,8.021,,7.3315E+02,,2.2792E+00,,12.7212,12.7021,0.0782,,71.812,75.335,,,,,,,,,,,,
CalCOFI,2007SR,035,37,2007_035d,19-Jul-2020 16:19:32,19-Jul-2020 08:19:32,33.82316,-118.62726,086.7 035.0,086.7,035.0,27.000,27.195,,12.6002,,12.5784,,12.5893,33.5538,,33.5540,33.5570,,33.5586,33.5563,4.1686,,4.3381,4.2148,4.5247,,6.8606,5.1494,4.6821,181.565,189.0476,140.9926,197.074,278.5372,169.9587,155.4757,0.1259,,1.0566,0.9099,-99.0,,-99.0,-99.0,25.3518,,25.3584,,0.7108,83.7198,,8.009,,7.3315E+02,,2.2108E+00,,12.5966,12.5748,0.0809,,69.122,74.993,,,,,,,,,,,,
CalCOFI,2007SR,035,37,2007_035d,19-Jul-2020 16:19:34,19-Jul-2020 08:19:34,33.82316,-118.62726,086.7 035.0,086.7,035.0,28.000,28.203,,12.3632,,12.3533,,12.3583,33.5797,,33.5799,33.5814,,33.5830,33.5815,3.9829,,4.1440,4.0311,4.5204,,6.8504,5.1407,4.5859,173.469,180.5962,135.8482,196.878,258.7356,169.6865,152.7674,0.1254,,1.0507,0.9075,-99.0,,-99.0,-99.0,25.4176,,25.4209,,0.7099,83.7390,,7.992,,7.3315E+02,,2.1302E+00,,12.3595,12.3497,0.0835,,65.729,74.584,,,,,,,,,,,,
CalCOFI,2007SR,035,37,2007_035d,19-Jul-2020 16:19:37,19-Jul-2020 08:19:37,33.82316,-118.62726,086.7 035.0,086.7,035.0,29.000,29.210,,12.1274,,12.0813,,12.1044,33.5885,,33.5887,33.5878,,33.5894,33.5891,3.9050,,4.0626,3.9541,4.5047,,6.8129,5.1090,4.5316,170.067,177.0448,133.6865,196.180,250.4148,168.7172,151.2019,0.1019,,0.7737,0.7619,-99.0,,-99.0,-99.0,25.4694,,25.4777,,0.6927,84.0989,,7.977,,7.3315E+02,,2.0639E+00,,12.1237,12.0775,0.0860,,64.130,73.905,,,,,,,,,,,,
CalCOFI,2007SR,035,37,2007_035d,19-Jul-2020 16:19:38,19-Jul-2020 08:19:38,33.82316,-118.62726,086.7 035.0,086.7,035.0,30.000,30.217,,11.8987,,11.8892,,11.8940,33.6006,,33.6008,33.6027,,33.6043,33.6026,3.8765,,4.0329,3.9259,4.4848,,6.7654,5.0689,4.4974,168.815,175.7379,132.8910,195.305,247.3525,167.5020,150.1965,0.0997,,0.7478,0.7452,-99.0,,-99.0,-99.0,25.5220,,25.5255,,0.6857,84.2470,,7.963,,7.3315E+02,,2.0041E+00,,11.8948,11.8853,0.0885,,63.361,73.290,,,,,,,,,,,,
CalCOFI,2007SR,035,37,2007_035d,19-Jul-2020 16:19:40,19-Jul-2020 08:19:40,33.82316,-118.62726,086.7 035.0,086.7,035.0,31.000,31.225,,11.8339,,11.8252,,11.8296,33.6018,,33.6020,33.6033,,33.6049,33.6035,3.8503,,4.0055,3.8999,4.4536,,6.6909,5.0060,4.4530,167.673,174.5457,132.1653,193.943,244.5594,165.6106,148.8880,0.0938,,0.6783,0.6976,-99.0,,-99.0,-99.0,25.5351,,25.5380,,0.6810,84.3463,,7.952,,7.3351E+02,,1.9582E+00,,11.8299,11.8213,0.0910,,62.848,72.682,31,11.673,33.6120,,174.10,0.316,0.347,13.53,0.045,0.00,1.15,12.22
CalCOFI,2007SR,035,37,2007_035d,19-Jul-2020 16:19:42,19-Jul-2020 08:19:42,33.82316,-118.62726,086.7 035.0,086.7,035.0,32.000,32.232,,11.7574,,11.7543,,11.7559,33.6068,,33.6070,33.6087,,33.6103,33.6087,3.8311,,3.9854,3.8809,4.4242,,6.6207,4.9467,4.4138,166.833,173.6689,131.6316,192.662,242.5049,163.8316,147.7316,0.0944,,0.6854,0.7026,-99.0,,-99.0,-99.0,25.5533,,25.5554,,0.6806,84.3537,,7.944,,7.3500E+02,,1.9024E+00,,11.7533,11.7502,0.0935,,62.435,72.098,,,,,,,,,,,,
CalCOFI,2007SR,035,37,2007_035d,19-Jul-2020 16:19:45,19-Jul-2020 08:19:45,33.82316,-118.62726,086.7 035.0,086.7,035.0,33.000,33.239,,11.6632,,11.6649,,11.6641,33.6084,,33.6086,33.6095,,33.6111,33.6099,3.8206,,3.9744,3.8706,4.3879,,6.5340,4.8735,4.3721,166.372,173.1876,131.3386,191.078,241.3773,161.6318,146.4852,0.0930,,0.6689,0.6909,-99.0,,-99.0,-99.0,25.5721,,25.5726,,0.6799,84.3697,,7.936,,7.3372E+02,,1.8559E+00,,11.6590,11.6608,0.0959,,62.141,71.372,,,,,,,,,,,,
CalCOFI,2007SR,035,37,2007_035d,19-Jul-2020 16:19:47,19-Jul-2020 08:19:47,33.82316,-118.62726,086.7 035.0,086.7,035.0,34.000,34.247,,11.5780,,11.5768,,11.5774,33.6137,,33.6139,33.6154,,33.6170,33.6155,3.8215,,3.9754,3.8714,4.3571,,6.4605,4.8113,4.3414,166.410,173.2273,131.3628,189.732,241.4703,159.7626,145.5627,0.0875,,0.6042,0.6426,0.0004,,0.0000,-99.0,25.5919,,25.5935,,0.6792,84.3838,,7.932,,7.3314E+02,,1.8005E+00,,11.5738,11.5725,0.0983,,62.046,70.741,,,,,,,,,,,,
CalCOFI,2007SR,035,37,2007_035d,19-Jul-2020 16:19:48,19-Jul-2020 08:19:48,33.82316,-118.62728,086.7 035.0,086.7,035.0,35.000,35.254,,11.5569,,11.5527,,11.5548,33.6139,,33.6141,33.6158,,33.6174,33.6158,3.8214,,3.9753,3.8713,4.3289,,6.3932,4.7545,4.3129,166.406,173.2231,131.3602,188.503,241.4605,158.0558,144.7080,0.0835,,0.5571,0.6054,0.0020,,0.0000,-99.0,25.5960,,25.5982,,0.6749,84.4735,,7.928,,7.3435E+02,,1.7659E+00,,11.5525,11.5483,0.1007,,62.018,70.248,,,,,,,,,,,,
CalCOFI,2007SR,035,37,2007_035d,19-Jul-2020 16:19:50,19-Jul-2020 08:19:50,33.82316,-118.62728,086.7 035.0,086.7,035.0,36.000,36.261,,11.5193,,11.5175,,11.5184,33.6163,,33.6165,33.6183,,33.6199,33.6182,3.8340,,3.9884,3.8838,4.3026,,6.3304,4.7014,4.2926,166.953,173.7941,131.7078,187.356,242.7984,156.4629,144.0854,0.0853,,0.5783,0.6223,0.0036,,0.0000,-99.0,25.6048,,25.6067,,0.6734,84.5047,,7.925,,7.3504E+02,,1.7273E+00,,11.5148,11.5130,0.1031,,62.173,69.770,,,,,,,,,,,,
CalCOFI,2007SR,035,37,2007_035d,19-Jul-2020 16:19:53,19-Jul-2020 08:19:53,33.82316,-118.62728,086.7 035.0,086.7,035.0,37.000,37.269,,11.4749,,11.4745,,11.4747,33.6179,,33.6181,33.6194,,33.6210,33.6196,3.8276,,3.9818,3.8775,4.2746,,6.2636,4.6449,4.2612,166.671,173.4998,131.5286,186.137,242.1086,154.7701,143.1494,0.0846,,0.5700,0.6158,0.0051,,0.0000,-99.0,25.6142,,25.6154,,0.6725,84.5257,,7.924,,7.3505E+02,,1.6793E+00,,11.4703,11.4698,0.1055,,62.011,69.254,,,,,,,,,,,,
CalCOFI,2007SR,035,37,2007_035d,19-Jul-2020 16:19:55,19-Jul-2020 08:19:55,33.82316,-118.62728,086.7 035.0,086.7,035.0,38.000,38.276,,11.4326,,11.4296,,11.4311,33.6170,,33.6172,33.6185,,33.6201,33.6187,3.6472,,3.7933,3.6990,4.2549,,6.2165,4.6052,4.1521,158.813,165.2968,126.5355,185.276,222.8891,153.5743,140.0549,0.0801,,0.5171,0.5724,0.0060,,0.0000,-99.0,25.6212,,25.6230,,0.6695,84.5883,,7.923,,7.3505E+02,,1.6239E+00,,11.4278,11.4249,0.1079,,59.035,68.868,,,,,,,,,,,,
CalCOFI,2007SR,035,37,2007_035d,19-Jul-2020 16:19:57,19-Jul-2020 08:19:57,33.82316,-118.62728,086.7 035.0,086.7,035.0,39.000,39.283,,11.3577,,11.3577,,11.3577,33.6268,,33.6270,33.6293,,33.6309,33.6290,3.5239,,3.6644,3.5770,4.2404,,6.1819,4.5759,4.0765,153.441,159.6890,123.1220,184.642,209.7499,152.6939,137.9080,0.0723,,0.4253,0.4918,0.0064,,0.0000,-99.0,25.6426,,25.6445,,0.6699,84.5809,,7.915,,7.3621E+02,,1.5836E+00,,11.3529,11.3529,0.1103,,56.952,68.534,,,,,,,,,,,,
CalCOFI,2007SR,035,37,2007_035d,19-Jul-2020 16:19:59,19-Jul-2020 08:19:59,33.82316,-118.62728,086.7 035.0,086.7,035.0,40.000,40.291,,11.2940,,11.2890,,11.2915,33.6436,,33.6438,33.6453,,33.6469,33.6454,3.4806,,3.6192,3.5342,4.2201,,6.1334,4.5350,4.0346,151.554,157.7191,121.9230,183.753,205.1346,151.4593,136.6912,0.0683,,0.3783,0.4478,0.0062,,0.0000,-99.0,25.6672,,25.6695,,0.6741,84.4911,,7.904,,7.3674E+02,,1.5491E+00,,11.2891,11.2841,0.1127,,56.183,68.113,,,,,,,,,,,,
CalCOFI,2007SR,035,37,2007_035d,19-Jul-2020 16:20:01,19-Jul-2020 08:20:01,33.82316,-118.62728,086.7 035.0,086.7,035.0,41.000,41.298,,11.2280,,11.2296,,11.2288,33.6569,,33.6571,33.6586,,33.6602,33.6587,3.4653,,3.6032,3.5191,4.1967,,6.0776,4.4878,4.0035,150.884,157.0197,121.4972,182.731,203.4959,150.0400,135.7686,0.0700,,0.3983,0.4667,0.0054,,0.0000,-99.0,25.6896,,25.6906,,0.6716,84.5442,,7.895,,7.3521E+02,,1.5108E+00,,11.2230,11.2246,0.1150,,55.862,67.656,41,11.208,33.6626,,155.83,0.199,0.240,15.58,0.032,0.00,1.31,14.73
CalCOFI,2007SR,035,37,2007_035d,19-Jul-2020 16:20:03,19-Jul-2020 08:20:03,33.82316,-118.62728,086.7 035.0,086.7,035.0,42.000,42.306,,11.2043,,11.2039,,11.2041,33.6638,,33.6640,33.6659,,33.6675,33.6658,3.4442,,3.5811,3.4982,4.1674,,6.0076,4.4287,3.9635,149.963,156.0583,120.9120,181.453,201.2432,148.2652,134.5886,0.0651,,0.3407,0.4114,0.0041,,0.0000,-99.0,25.6993,,25.7010,,0.6779,84.4104,,7.887,,7.3764E+02,,1.4804E+00,,11.1991,11.1988,0.1173,,55.496,67.150,,,,,,,,,,,,
CalCOFI,2007SR,035,37,2007_035d,19-Jul-2020 16:20:05,19-Jul-2020 08:20:05,33.82316,-118.62728,086.7 035.0,086.7,035.0,43.000,43.313,,11.1797,,11.1781,,11.1789,33.6724,,33.6726,33.6750,,33.6766,33.6746,3.4080,,3.5433,3.4624,4.1415,,5.9458,4.3765,3.9195,148.386,154.4120,119.9100,180.324,197.3861,146.6973,133.3037,0.0654,,0.3442,0.4148,0.0026,,0.0000,-99.0,25.7104,,25.7127,,0.6822,84.3206,,7.883,,7.3817E+02,,1.4466E+00,,11.1745,11.1729,0.1196,,54.887,66.700,,,,,,,,,,,,
CalCOFI,2007SR,035,37,2007_035d,19-Jul-2020 16:20:07,19-Jul-2020 08:20:07,33.82316,-118.62728,086.7 035.0,086.7,035.0,44.000,44.320,,11.1577,,11.1584,,11.1581,33.6802,,33.6804,33.6818,,33.6834,33.6819,3.4020,,3.5370,3.4564,4.1104,,5.8716,4.3137,3.8851,148.122,154.1365,119.7422,178.967,196.7404,144.8128,132.2775,0.0631,,0.3172,0.3880,0.0006,,0.0000,-99.0,25.7205,,25.7216,,0.6870,84.2184,,7.877,,7.3725E+02,,1.4061E+00,,11.1523,11.1530,0.1219,,54.767,66.173,,,,,,,,,,,,
CalCOFI,2007SR,035,37,2007_035d,19-Jul-2020 16:20:09,19-Jul-2020 08:20:09,33.82316,-118.62728,086.7 035.0,086.7,035.0,45.000,45.328,,11.1219,,11.1204,,11.1212,33.6821,,33.6823,33.6842,,33.6858,33.6841,3.3993,,3.5342,3.4538,4.0871,,5.8159,4.2667,3.8603,148.006,154.0154,119.6685,177.951,196.4567,143.4018,131.5352,0.0631,,0.3172,0.3880,5.3349E-07,,0.0000,-99.0,25.7284,,25.7303,,0.6933,84.0854,,7.874,,7.3886E+02,,1.3792E+00,,11.1164,11.1149,0.1242,,54.684,65.746,,,,,,,,,,,,
CalCOFI,2007SR,035,37,2007_035d,19-Jul-2020 16:20:11,19-Jul-2020 08:20:11,33.82316,-118.62728,086.7 035.0,086.7,035.0,46.000,46.335,,11.0809,,11.0781,,11.0795,33.6869,,33.6871,33.6888,,33.6904,33.6888,3.3744,,3.5082,3.4291,4.0618,,5.7555,4.2157,3.8224,146.918,152.8796,118.9772,176.848,193.7956,141.8700,130.4236,0.0582,,0.2596,0.3290,-99.0,,-99.0,-99.0,25.7395,,25.7415,,0.6923,84.1076,,7.870,,7.4070E+02,,1.3539E+00,,11.0753,11.0725,0.1264,,54.236,65.282,,,,,,,,,,,,
CalCOFI,2007SR,035,37,2007_035d,19-Jul-2020 16:20:13,19-Jul-2020 08:20:13,33.82316,-118.62728,086.7 035.0,086.7,035.0,47.000,47.342,,11.0183,,11.0158,,11.0171,33.6956,,33.6958,33.6979,,33.6995,33.6977,3.3626,,3.4959,3.4175,4.0410,,5.7059,4.1738,3.7957,146.401,152.3399,118.6487,175.938,192.5311,140.6063,129.6275,0.0563,,0.2372,0.3054,-99.0,,-99.0,-99.0,25.7575,,25.7598,,0.6930,84.0932,,7.867,,7.4265E+02,,1.3265E+00,,11.0126,11.0101,0.1287,,53.977,64.865,,,,,,,,,,,,
CalCOFI,2007SR,035,37,2007_035d,19-Jul-2020 16:20:15,19-Jul-2020 08:20:15,33.82316,-118.62728,086.7 035.0,086.7,035.0,48.000,48.350,,11.0046,,11.0057,,11.0052,33.6991,,33.6993,33.7010,,33.7026,33.7010,3.3841,,3.5183,3.4387,4.0170,,5.6486,4.1253,3.7820,147.338,153.3180,119.2440,174.894,194.8229,139.1564,129.2002,0.0547,,0.2184,0.2852,-99.0,,-99.0,-99.0,25.7627,,25.7640,,0.6905,84.1448,,7.865,,7.4267E+02,,1.2966E+00,,10.9988,10.9999,0.1310,,54.308,64.468,,,,,,,,,,,,
CalCOFI,2007SR,035,37,2007_035d,19-Jul-2020 16:20:17,19-Jul-2020 08:20:17,33.82316,-118.62728,086.7 035.0,086.7,035.0,49.000,49.357,,10.9833,,10.9828,,10.9831,33.6996,,33.6998,33.7015,,33.7031,33.7015,3.3791,,3.5131,3.4338,3.9946,,5.5951,4.0802,3.7570,147.118,153.0884,119.1042,173.916,194.2848,137.7982,128.4512,0.0533,,0.2020,0.2673,-99.0,,-99.0,-99.0,25.7670,,25.7685,,0.6916,84.1231,,7.865,,7.4313E+02,,1.2654E+00,,10.9773,10.9769,0.1332,,54.203,64.076,,,,,,,,,,,,